Home > Weather > Fort Simpson > Past weeks

Flag for Canada Past Weather in Fort Simpson, Northwest Territories, Canada — Yesterday and Last 2 Weeks

Now
68 °F

Partly sunny.


Feels Like: 68 °F
Forecast: 61 / 88 °F
Wind: 6 mph from Southeast

Location: Fort Simpson

Current Time: Jun 30, 2016 at 10:05:39 AM

Latest Report: Jun 30, 2016 at 9:00 AM


Visibility: 15 mi

Pressure: 29.98 "Hg

Humidity: 60%

Dew Point: 54 °F

Location of Fort SimpsonLocation

Past Weather in Fort Simpson — Graph

°F

Fort Simpson Temperature Yesterday

Maximum temperature yesterday: 86 °F (at 4:00 PM)
Minimum temperature yesterday: 63 °F (at 5:00 AM)
Average temperature yesterday: 75 °F

High & Low Weather Summary for the Past Weeks

 TemperatureHumidityPressure
High90 °F (Jun 20, 5:00 PM)100% (Jun 25, 4:00 AM)30.13 "Hg (Jun 25, 4:00 AM)
Low39 °F (Jun 18, 5:00 AM)22% (Jun 20, 5:00 PM)29.63 "Hg (Jun 21, 2:00 AM)
Average65 °F59%29.90 "Hg
* Reported Jun 15 8:00 AM — Jun 30 8:00 AM, Fort Simpson, Weather by CustomWeather, © 2016

Note: Actual official high and low records may vary slightly from our data, if they occured in-between our weather recording intervals... More about our weather records

Advertising

Fort Simpson Weather History for the Previous 24 Hours

Scroll right to see more
 ConditionsComfort  
Time TempWeatherWind HumidityBarometerVisibility
8:00 AM
Thu, Jun 30
68 °FPartly sunny.6 mph60%29.98 "Hg15 mi
7:00 AM66 °FScattered clouds.5 mph60%29.98 "Hg15 mi
6:00 AM63 °FScattered clouds.5 mph64%29.99 "Hg15 mi
5:00 AM63 °FPassing clouds.5 mph59%30.00 "Hg15 mi
4:00 AM64 °FPassing clouds.6 mph56%30.00 "Hg15 mi
3:00 AM64 °FPassing clouds.5 mph64%30.00 "Hg15 mi
2:00 AM63 °FPassing clouds.No wind73%30.01 "Hg15 mi
1:00 AM70 °FPassing clouds.3 mph53%30.01 "Hg15 mi
12:00 AM70 °FPartly sunny.5 mph57%30.00 "Hg15 mi
11:00 PM
Wed, Jun 29
73 °FPartly sunny.7 mph47%30.02 "Hg15 mi
10:00 PM79 °FBroken clouds.8 mph42%30.00 "Hg15 mi
9:00 PM82 °FPartly sunny.13 mph32%29.99 "Hg15 mi
8:00 PM84 °FScattered clouds.12 mph33%29.98 "Hg15 mi
7:00 PM86 °FPartly sunny.10 mph31%29.99 "Hg15 mi
6:00 PM86 °FScattered clouds.7 mph31%29.99 "Hg15 mi
5:00 PM86 °FPassing clouds.5 mph33%30.00 "Hg15 mi
4:00 PM86 °FPassing clouds.7 mph33%30.02 "Hg15 mi
3:00 PM84 °FPassing clouds.7 mph33%30.04 "Hg15 mi
2:00 PM84 °FPassing clouds.7 mph33%30.06 "Hg15 mi
1:00 PM81 °FPassing clouds.10 mph39%30.07 "Hg15 mi
12:00 PM79 °FPassing clouds.6 mph42%30.09 "Hg15 mi
11:00 AM75 °FPassing clouds.3 mph47%30.10 "Hg15 mi
10:00 AM72 °FScattered clouds.7 mph50%30.10 "Hg15 mi
Weather by CustomWeather, © 2016

See weather overviewHow to use our weather pages